Wind_Speed
6 5 5 5 5 5 5 4 4 4 4 4 4 4 4 4 4 4 4 4 3 3 4 3 3 3 2 2 2 2 2 2 3 3 4 4 4 5 5 5 6 7 7
5 4 4 4 4 4 3 3 3 3 3 3 3 3 4 4 4 3 3 3 3 3 3 3 2 2 2 2 2 2 2 2 2 4 4 4 4 5 5 6 7 7 7
4 3 3 3 4 4 3 3 3 3 3 3 3 3 4 4 4 4 4 4 4 3 3 3 3 2 2 2 2 3 3 3 3 4 4 5 5 6 6 7 7 8 8
4 3 3 4 4 4 3 3 4 4 4 3 4 4 4 4 4 4 4 4 4 4 4 4 4 4 4 4 4 5 5 4 4 5 6 6 6 6 7 7 8 9 10
5 5 5 5 5 5 5 4 4 4 4 4 4 4 4 5 5 5 5 5 5 5 5 6 6 6 6 6 6 6 6 6 6 7 7 7 7 8 8 8 9 10 11
6 6 7 7 6 6 5 5 4 4 5 5 5 5 6 6 6 6 7 7 6 7 7 7 7 8 8 8 8 8 8 8 9 9 9 9 10 10 10 11 11 11 12
8 8 8 8 8 8 7 6 6 6 7 7 7 7 7 8 8 8 8 9 8 9 9 9 9 10 10 10 10 10 11 11 11 11 11 12 12 12 12 13 13 13 14
9 9 9 9 9 9 8 8 8 8 9 9 9 9 9 10 10 10 10 11 11 12 12 12 12 12 12 12 12 13 13 14 14 13 13 13 13 14 14 15 15 15 15
10 10 10 11 11 11 11 10 10 11 11 10 10 10 11 12 12 12 12 13 13 14 14 14 15 15 15 15 15 15 15 15 15 15 15 15 15 16 16 17 17 17 17
12 12 12 12 12 13 13 13 12 12 12 12 12 12 13 13 14 14 14 15 16 16 16 16 16 16 17 18 18 17 17 17 16 16 16 17 17 17 17 17 17 18 18
14 14 14 14 14 14 14 15 15 15 14 14 14 14 15 15 16 16 16 17 17 17 17 17 17 18 18 19 19 18 18 18 17 18 18 18 18 18 18 19 19 20 20
16 15 15 15 16 16 16 16 16 16 15 15 16 16 17 16 17 16 16 17 18 17 17 18 18 19 19 20 20 19 19 19 19 19 19 19 19 19 20 21 21 21 21
17 16 17 17 17 17 17 17 17 17 17 17 17 17 17 17 18 18 18 17 18 19 19 20 20 21 21 21 21 21 20 20 20 21 20 21 21 21 22 22 23 23 23
17 18 18 17 17 17 18 18 19 18 18 18 18 18 18 18 18 18 18 19 20 21 22 22 22 22 22 22 23 22 22 22 22 22 22 22 22 22 23 23 23 24 24
19 19 18 18 17 18 19 20 21 20 20 20 20 20 20 19 19 20 20 20 21 22 23 24 24 24 24 24 24 24 23 23 23 24 24 24 24 24 24 24 24 24 25
20 20 21 20 19 20 20 21 21 22 22 23 22 22 21 21 21 22 21 22 22 23 24 25 25 25 25 25 25 26 25 25 25 25 25 26 26 26 25 25 26 26 26
21 22 22 22 21 22 22 22 21 22 23 23 23 23 23 23 23 23 23 24 24 25 25 25 25 25 26 25 25 26 26 26 26 26 27 27 28 28 27 27 27 27 27
22 23 23 23 23 24 23 23 23 23 23 23 24 25 25 25 26 26 26 27 27 27 26 26 26 27 27 26 27 27 26 26 26 27 27 28 29 29 28 28 27 27 28
24 24 24 24 25 25 25 25 24 24 24 24 25 25 26 27 27 27 28 28 28 28 28 28 27 27 27 28 27 27 27 27 27 27 28 28 29 29 29 29 28 28 29
25 25 25 25 25 26 26 26 26 26 26 26 26 27 28 28 29 29 29 29 29 29 29 29 28 28 28 28 28 29 29 28 28 28 28 29 29 30 30 30 30 29 30
25 25 25 26 26 27 27 27 27 28 28 28 29 29 29 29 29 29 29 29 29 30 30 30 29 29 28 28 28 28 28 28 28 28 28 29 30 31 31 31 31 31 31
26 26 26 27 27 27 28 28 28 29 29 30 30 31 31 31 31 30 30 31 31 32 31 31 31 30 29 28 28 28 28 28 28 28 29 30 31 31 31 32 32 32 31
27 27 27 27 27 28 28 29 29 30 30 31 31 32 32 32 33 32 32 32 33 33 32 32 31 30 30 30 29 30 29 29 30 29 29 30 31 31 32 32 32 32 32
27 27 28 28 28 28 29 29 29 30 31 32 33 33 33 33 33 33 33 33 33 33 33 33 32 31 31 31 31 32 32 31 32 31 31 32 32 32 32 31 31 31 31
28 28 29 29 29 29 29 30 30 30 31 31 32 32 32 32 33 33 34 34 34 34 34 33 32 31 31 32 32 32 32 32 32 31 31 31 31 31 31 32 32 32 32
28 29 29 29 30 30 29 29 30 30 31 31 31 32 32 33 33 34 34 34 34 34 34 32 32 31 32 32 32 32 32 31 32 32 31 31 31 31 32 32 32 32 31
Wind_Direction
30 31 33 34 34 32 33 34 35 37 37 33 34 36 31 34 41 41 36 31 33 30 22 23 35 35 33 30 22 25 27 27 12 3 357 351 342 336 329 320 319 315 312
9 22 26 20 17 17 10 3 7 8 20 23 16 13 13 16 13 10 3 4 5 359 2 13 14 8 6 1 358 2 5 5 352 344 341 343 341 333 328 326 325 320 317
354 5 4 359 358 3 357 344 344 352 1 2 359 351 348 349 348 352 348 342 337 340 342 340 331 320 317 329 334 327 324 316 321 324 330 331 331 323 320 320 319 318 315
321 316 312 313 323 333 336 340 347 349 348 344 332 326 328 331 331 332 334 328 319 316 320 316 309 300 293 294 300 305 306 303 299 302 309 314 315 312 309 312 311 311 311
296 293 297 297 298 307 314 317 314 317 318 317 311 309 309 312 313 311 312 312 305 302 299 299 298 293 289 286 286 288 293 293 292 294 298 300 301 302 303 305 306 305 306
282 285 291 295 294 295 301 304 296 301 305 306 301 297 294 295 298 299 299 302 301 298 292 291 292 291 287 285 283 280 283 287 288 290 293 294 295 295 298 299 301 302 303
283 284 286 289 289 286 293 297 290 291 294 296 295 294 292 289 292 292 290 290 292 293 290 287 286 287 286 283 280 277 278 283 286 288 288 288 290 291 292 294 296 298 298
282 282 281 281 283 283 285 284 285 286 287 287 289 292 290 288 289 288 286 286 287 289 288 285 283 284 285 283 280 278 278 280 283 285 285 286 287 288 290 292 294 296 298
280 279 276 278 282 282 283 282 280 280 281 281 284 289 289 288 287 284 284 284 283 283 284 283 283 284 282 280 280 280 280 282 283 282 282 283 285 287 289 291 293 294 294
278 279 279 280 283 283 283 281 278 277 278 279 280 282 286 289 288 286 284 284 282 285 283 282 282 283 282 280 279 281 279 279 281 282 282 281 283 287 290 291 293 294 295
279 280 278 278 283 284 282 279 279 282 280 278 281 286 288 287 288 287 284 286 284 284 284 283 283 282 282 282 280 281 281 280 280 281 282 282 285 287 288 290 292 292 294
277 279 280 280 281 284 284 282 280 281 280 280 283 288 292 288 289 289 286 285 286 286 287 289 288 289 288 284 281 281 281 279 279 280 281 283 284 286 288 289 289 291 293
281 281 281 283 283 282 284 283 282 281 280 281 280 283 288 289 291 291 286 283 283 285 286 288 290 290 288 283 280 278 278 278 278 279 280 282 283 286 287 287 288 290 291
285 283 282 283 284 285 285 285 286 283 282 282 283 286 288 290 291 293 291 285 284 285 286 287 288 289 289 284 281 279 278 278 279 279 278 279 281 283 285 286 288 289 289
287 285 285 286 287 288 287 287 287 284 284 284 287 288 289 290 291 292 291 289 287 286 287 286 287 288 289 286 284 280 278 277 278 278 278 279 280 282 283 285 287 287 288
283 285 284 284 284 286 288 288 286 283 283 284 286 287 287 289 290 291 290 289 290 289 288 288 287 286 286 285 284 282 281 281 279 278 278 279 280 281 282 283 285 286 287
281 282 285 285 285 286 288 289 286 285 285 285 285 285 286 287 288 290 289 288 289 289 290 289 286 284 285 287 286 285 282 282 280 278 278 278 279 280 282 283 284 285 286
285 286 286 287 287 287 288 289 288 286 285 286 286 285 286 285 287 287 287 287 288 289 289 287 287 285 284 287 286 284 282 281 281 280 280 279 278 280 281 281 283 285 286
284 286 286 285 285 286 288 288 289 288 287 286 286 286 285 285 285 286 287 287 288 288 288 288 288 288 286 287 287 284 282 281 281 282 282 281 280 279 280 282 282 283 284
283 285 285 286 285 286 287 287 288 289 290 288 285 285 284 283 284 284 285 286 287 287 288 287 287 287 286 285 285 284 283 283 282 282 282 282 281 279 280 282 282 282 284
282 284 286 286 287 287 288 288 287 288 288 287 285 284 284 284 284 284 285 285 285 286 286 287 287 286 286 287 286 285 284 283 283 283 282 282 281 281 281 281 282 282 283
281 283 285 286 287 288 289 288 288 286 286 286 286 284 283 282 284 284 283 284 285 285 284 285 285 284 284 286 286 285 284 283 283 284 283 282 281 281 280 280 281 282 283
281 282 284 286 288 288 288 288 287 286 286 286 286 286 284 283 283 284 283 282 284 283 284 284 282 281 281 283 282 282 282 283 283 283 283 283 283 282 281 280 281 282 283
278 281 283 286 287 287 287 287 286 286 286 286 286 286 287 287 285 284 283 283 283 283 284 283 281 280 280 280 280 280 281 282 282 282 281 282 282 282 283 282 282 282 283
279 281 284 285 286 287 288 288 288 287 288 287 287 286 286 286 285 285 284 285 284 283 285 284 282 280 280 281 280 281 282 283 283 283 284 285 284 284 285 285 283 283 283
279 282 284 285 286 287 287 288 289 290 289 288 286 286 286 285 285 285 283 283 284 285 286 286 286 284 282 283 284 284 284 285 285 284 284 283 283 283 284 284 285 284 284
Height
5899 5898 5897 5897 5896 5895 5894 5893 5893 5892 5891 5891 5890 5889 5888 5888 5887 5886 5886 5885 5884 5884 5883 5882 5882 5882 5881 5881 5880 5880 5879 5879 5879 5878 5878 5877 5877 5876 5876 5875 5874 5874 5873
5900 5899 5898 5897 5896 5895 5894 5894 5893 5892 5891 5891 5890 5889 5889 5888 5887 5886 5885 5885 5884 5884 5883 5882 5882 5881 5881 5880 5880 5880 5879 5879 5879 5878 5877 5877 5877 5875 5874 5874 5873 5872 5871
5900 5899 5898 5897 5896 5895 5894 5894 5893 5892 5891 5891 5890 5889 5888 5887 5887 5886 5885 5885 5884 5883 5883 5882 5882 5881 5880 5880 5879 5879 5878 5878 5878 5877 5877 5876 5875 5874 5873 5872 5871 5870 5869
5899 5898 5898 5897 5896 5895 5894 5893 5893 5892 5891 5890 5889 5889 5888 5887 5886 5885 5885 5884 5883 5882 5882 5881 5881 5880 5880 5879 5878 5877 5877 5876 5876 5875 5874 5874 5873 5872 5872 5871 5870 5868 5867
5898 5897 5897 5896 5895 5894 5893 5892 5892 5891 5890 5889 5889 5888 5887 5886 5885 5884 5884 5883 5882 5881 5881 5880 5880 5879 5878 5877 5877 5876 5875 5874 5874 5873 5872 5871 5871 5870 5869 5868 5868 5866 5865
5897 5896 5895 5894 5894 5893 5892 5891 5890 5890 5889 5888 5887 5886 5885 5885 5884 5883 5882 5881 5880 5880 5879 5878 5878 5877 5876 5875 5874 5874 5873 5872 5871 5871 5870 5869 5868 5867 5867 5866 5865 5864 5862
5895 5894 5893 5893 5892 5891 5890 5889 5888 5888 5887 5886 5885 5884 5883 5883 5882 5881 5880 5879 5879 5878 5877 5876 5875 5874 5874 5873 5872 5871 5870 5870 5869 5868 5867 5866 5865 5864 5864 5863 5862 5861 5859
5893 5892 5892 5891 5890 5889 5888 5887 5886 5885 5885 5884 5883 5882 5881 5880 5879 5878 5878 5877 5876 5875 5874 5873 5872 5872 5871 5870 5869 5868 5867 5866 5865 5864 5863 5862 5862 5861 5860 5859 5858 5857 5855
5891 5890 5889 5889 5888 5887 5886 5885 5884 5883 5882 5881 5880 5879 5878 5877 5876 5875 5874 5874 5873 5872 5871 5870 5869 5868 5867 5866 5865 5864 5863 5862 5861 5860 5859 5858 5857 5856 5855 5854 5853 5852 5851
5889 5888 5887 5886 5885 5884 5883 5882 5881 5880 5879 5878 5877 5876 5875 5874 5873 5872 5871 5870 5869 5869 5868 5866 5865 5864 5863 5862 5861 5860 5859 5858 5857 5856 5855 5853 5852 5851 5850 5849 5848 5847 5846
5885 5884 5883 5883 5882 5881 5879 5878 5877 5876 5875 5874 5873 5872 5871 5870 5869 5867 5867 5865 5865 5864 5863 5862 5861 5859 5858 5857 5856 5855 5854 5853 5852 5851 5850 5848 5847 5846 5845 5844 5842 5841 5840
5881 5881 5880 5879 5878 5877 5876 5874 5873 5872 5871 5870 5869 5868 5867 5865 5864 5863 5862 5861 5860 5859 5858 5857 5856 5854 5853 5852 5851 5850 5848 5847 5846 5845 5844 5843 5842 5841 5839 5838 5836 5835 5834
5877 5877 5876 5875 5873 5872 5871 5870 5869 5868 5866 5865 5864 5863 5862 5861 5860 5858 5857 5856 5855 5854 5853 5852 5851 5849 5848 5846 5845 5844 5843 5842 5841 5840 5838 5837 5836 5834 5833 5832 5830 5829 5828
5873 5872 5871 5870 5869 5868 5867 5866 5864 5863 5861 5860 5859 5858 5857 5856 5855 5854 5852 5851 5850 5849 5848 5846 5845 5844 5842 5840 5839 5838 5837 5836 5835 5833 5832 5831 5829 5828 5827 5826 5824 5823 5821
5867 5866 5865 5864 5864 5863 5862 5861 5859 5858 5857 5855 5854 5853 5852 5850 5849 5848 5847 5845 5844 5843 5842 5840 5839 5837 5836 5834 5832 5831 5830 5829 5828 5826 5825 5824 5823 5821 5820 5819 5817 5816 5814
5862 5861 5860 5859 5858 5857 5857 5855 5854 5853 5851 5850 5848 5847 5846 5844 5843 5842 5841 5839 5838 5836 5835 5833 5832 5830 5828 5827 5825 5824 5822 5821 5820 5819 5818 5816 5815 5814 5812 5811 5810 5809 5807
5856 5855 5854 5853 5852 5851 5850 5849 5848 5846 5845 5844 5842 5841 5840 5838 5837 5836 5834 5833 5832 5830 5828 5826 5825 5823 5821 5819 5817 5816 5814 5813 5812 5811 5810 5809 5807 5806 5805 5803 5802 5800 5799
5850 5849 5848 5846 5845 5844 5843 5842 5841 5840 5838 5837 5835 5834 5833 5832 5831 5829 5828 5826 5825 5823 5821 5819 5817 5815 5814 5812 5810 5808 5806 5805 5804 5803 5801 5800 5799 5798 5797 5795 5794 5792 5791
5843 5842 5841 5839 5838 5837 5836 5835 5834 5832 5831 5830 5828 5827 5826 5825 5824 5822 5820 5819 5817 5815 5813 5811 5810 5808 5806 5804 5802 5800 5798 5797 5796 5794 5793 5792 5791 5790 5788 5787 5786 5784 5782
5836 5835 5834 5832 5831 5830 5828 5827 5826 5825 5823 5822 5821 5819 5818 5817 5816 5814 5813 5811 5810 5807 5805 5804 5802 5800 5798 5796 5794 5792 5790 5789 5787 5786 5784 5783 5782 5780 5779 5778 5777 5776 5774
5830 5828 5827 5826 5824 5823 5821 5820 5818 5817 5815 5814 5812 5811 5809 5808 5807 5806 5804 5803 5801 5799 5797 5795 5794 5792 5790 5788 5786 5784 5782 5780 5779 5777 5776 5774 5773 5771 5770 5769 5768 5766 5765
5823 5821 5820 5819 5817 5815 5813 5812 5810 5809 5807 5805 5803 5802 5800 5799 5798 5797 5795 5794 5792 5790 5788 5787 5785 5783 5781 5779 5777 5775 5774 5772 5771 5769 5767 5765 5764 5762 5761 5760 5758 5757 5755
5815 5814 5813 5811 5810 5808 5806 5804 5802 5800 5798 5796 5794 5793 5791 5790 5788 5787 5786 5785 5783 5781 5779 5777 5776 5774 5772 5770 5769 5767 5765 5763 5762 5760 5758 5757 5755 5753 5751 5750 5749 5747 5746
5807 5806 5805 5803 5801 5800 5798 5796 5793 5791 5789 5788 5786 5784 5782 5780 5779 5777 5776 5775 5773 5772 5770 5768 5766 5765 5763 5761 5760 5758 5756 5754 5753 5751 5749 5747 5745 5744 5742 5741 5739 5738 5737
5800 5798 5797 5795 5793 5791 5789 5787 5785 5782 5781 5778 5776 5774 5773 5771 5770 5768 5766 5765 5763 5761 5760 5758 5756 5755 5753 5752 5750 5748 5747 5745 5743 5741 5739 5738 5736 5734 5733 5731 5730 5729 5728
5792 5790 5789 5787 5784 5782 5780 5778 5776 5773 5771 5769 5767 5765 5763 5762 5760 5759 5757 5755 5753 5752 5750 5748 5746 5744 5743 5742 5740 5738 5736 5735 5733 5731 5730 5728 5726 5725 5723 5722 5720 5718 5718